Hagerstown, MD

3:35 PM EST on December 05, 2019 (GMT -0500)
Hagerstown Regional-Henson

Weather History for KHGR - July, 2019

Change the Weather History Date:

Wednesday, July 31, 2019

  Actual Average Record
Temperature  
Mean Temperature 73 °F 75 °F  
Max Temperature 78 °F 85 °F 96 °F (1999)
Min Temperature 67 °F 65 °F 55 °F (1997)
Degree Days  
Heating Degree Days 0 0  
Month to date heating degree days 0 0  
Since 1 June heating degree days 5 18  
Since 1 July heating degree days 0 0  
Cooling Degree Days 8 10  
Month to date cooling degree days 430 321  
Year to date cooling degree days 867 606  
Since 1 June cooling degree days 685 530  
Growing Degree Days 23 (Base 50)    
Moisture  
Dew Point 66 °F    
Average Humidity 78    
Maximum Humidity 93    
Minimum Humidity 62    
Precipitation  
Precipitation 0.01 in 0.12 in 0.27 in (2000)
Month to date precipitation 4.37 3.41  
Year to date precipitation 25.97 23.49  
Sea Level Pressure  
Sea Level Pressure 30.07 in    
Wind  
Wind Speed 3 mph (WSW)    
Max Wind Speed 9 mph    
Max Gust Speed 11 mph    
Visibility 9 miles    
Events Rain    
T = Trace of Precipitation, MM = Missing Value Source: NWS Daily Summary

Daily Weather History Graph

Daily Weather History Graph

Search for Another Location

Airport or City:

Astronomy

Jul. 31, 2019 Rise Set
Actual Time 6:08 AM EDT 8:25 PM EDT
Civil Twilight 5:38 AM EDT 8:55 PM EDT
Nautical Twilight 5:01 AM EDT 9:32 PM EDT
Astronomical Twilight 4:20 AM EDT 10:13 PM EDT
Moon 5:20 AM EDT (7/31) 8:22 PM EDT (7/31)
Length of Visible Light 15h 16m
Length of Day
14h 16m
Waning Crescent, 0% of the Moon is Illuminated
Jul 31
Waning Crescent
Jul 31
New
Aug 7
First Quarter
Aug 15
Full
Aug 23
Last Quarter

Hourly Weather History & Observations

Time (EDT) Temp. Dew Point Humidity Pressure Visibility Wind Dir Wind Speed Gust Speed Precip Events Conditions
12:53 AM 71.1 °F 68.0 °F 90% 30.05 in 10.0 mi ESE 4.6 mph - N/A   Clear
1:53 AM 72.0 °F 66.9 °F 84% 30.04 in 10.0 mi South 3.5 mph - N/A   Clear
2:53 AM 71.1 °F 66.0 °F 84% 30.04 in 10.0 mi SSW 3.5 mph - N/A   Clear
3:36 AM 69.1 °F 66.9 °F 93% 30.05 in 5.0 mi NW 3.5 mph - N/A   Scattered Clouds
3:53 AM 69.1 °F 66.9 °F 93% 30.05 in 5.0 mi Calm Calm - N/A   Partly Cloudy
4:53 AM 68.0 °F 66.0 °F 93% 30.04 in 6.0 mi ESE 4.6 mph - N/A   Clear
5:53 AM 69.1 °F 66.0 °F 90% 30.05 in 10.0 mi WNW 8.1 mph - N/A   Clear
6:08 AM 68.0 °F 66.0 °F 93% 30.05 in 5.0 mi West 5.8 mph - N/A   Scattered Clouds
6:17 AM 68.0 °F 66.0 °F 93% 30.05 in 3.0 mi WNW 4.6 mph - N/A   Mostly Cloudy
6:31 AM 68.0 °F 66.0 °F 93% 30.05 in 2.5 mi Calm Calm - N/A   Mostly Cloudy
6:38 AM 68.0 °F 66.0 °F 93% 30.05 in 3.0 mi Calm Calm - N/A   Scattered Clouds
6:53 AM 69.1 °F 66.9 °F 93% 30.06 in 10.0 mi Calm Calm - N/A   Mostly Cloudy
7:53 AM 72.0 °F 64.0 °F 76% 30.07 in 10.0 mi WNW 3.5 mph - N/A   Mostly Cloudy
8:53 AM 73.0 °F 66.0 °F 79% 30.09 in 10.0 mi Calm Calm - N/A   Mostly Cloudy
9:53 AM 75.0 °F 66.0 °F 73% 30.09 in 10.0 mi Calm Calm - N/A   Mostly Cloudy
10:53 AM 75.9 °F 66.0 °F 71% 30.11 in 10.0 mi West 3.5 mph - N/A   Mostly Cloudy
11:53 AM 75.9 °F 66.0 °F 71% 30.12 in 10.0 mi West 4.6 mph - N/A   Mostly Cloudy
12:53 PM 75.0 °F 68.0 °F 79% 30.12 in 10.0 mi SW 4.6 mph - 0.00 in Rain Light Rain
1:53 PM 75.9 °F 64.9 °F 69% 30.10 in 10.0 mi SW 3.5 mph - 0.00 in Rain Light Rain
2:53 PM 75.0 °F 66.0 °F 73% 30.09 in 10.0 mi SW 4.6 mph - 0.00 in Rain Light Rain
3:53 PM 75.0 °F 64.9 °F 71% 30.08 in 10.0 mi West 5.8 mph - 0.01 in   Mostly Cloudy
4:53 PM 78.1 °F 64.9 °F 64% 30.05 in 10.0 mi Calm Calm - N/A   Clear
5:53 PM 78.1 °F 66.0 °F 66% 30.05 in 10.0 mi WSW 5.8 mph - N/A   Scattered Clouds
6:53 PM 77.0 °F 68.0 °F 74% 30.06 in 10.0 mi West 4.6 mph - N/A   Scattered Clouds
7:53 PM 75.9 °F 68.0 °F 76% 30.05 in 10.0 mi Calm Calm - N/A   Clear
8:53 PM 75.0 °F 68.0 °F 79% 30.07 in 10.0 mi Calm Calm - N/A   Clear
9:53 PM 73.0 °F 68.0 °F 84% 30.09 in 10.0 mi Calm Calm - N/A   Clear
10:53 PM 72.0 °F 64.0 °F 76% 30.09 in 10.0 mi SW 5.8 mph - N/A   Clear
11:53 PM 70.0 °F 63.0 °F 78% 30.09 in 10.0 mi SSE 3.5 mph - N/A   Clear